Regional Weather Roundup
Issued by NWS

Home | Current Version | Previous Version | Graphics & Text | Print | Product List | Glossary On
Versions: 1 2 3 4 5 6 7 8 9 10 11 12 13 14 15 16 17 18 19 20 21 22 23 24 25 26 27 28 29 30 31 32 33 34 35 36 37 38 39 40 41 42 43 44 45 46 47 48 49 50
451
ASUS45 KCYS 111210
RWRWY

WYOMING REGIONAL WEATHER ROUNDUP
NATIONAL WEATHER SERVICE CHEYENNE WY
500 AM MST THU FEB 11 2016

NOTE:  "FAIR" INDICATES FEW OR NO CLOUDS BELOW 12,000 FEET
WITH NO SIGNIFICANT WEATHER AND/OR OBSTRUCTIONS TO VISIBILITY.

WYZ001-111300-
YELLOWSTONE NATIONAL PARK

CITY           SKY/WX    TMP DP  RH WIND       PRES   REMARKS
LK YELLOWSTONE   N/A     25  18  74 CALM      30.32F
6HR MIN TEMP:  22; 6HR MAX TEMP:  26;

W YELLOWSTONE  NOT AVBL

$$
WYZ002>013-054>058-071-098>099-111300-
NORTHERN WYOMING

CITY           SKY/WX    TMP DP  RH WIND       PRES   REMARKS
JACKSON        FAIR      12  12 100 NE6       30.35R WCI   3
CODY           FAIR      52  18  25 W10       30.07R
GREYBULL       FAIR      31  26  82 NW7       30.09S WCI  24
6HR MIN TEMP:  29; 6HR MAX TEMP:  34;

WORLAND        FAIR      29  25  85 SW5       30.09R WCI  24
6HR MIN TEMP:  25; 6HR MAX TEMP:  33;

SHERIDAN       FAIR      37  26  64 CALM      30.02R
6HR MIN TEMP:  31; 6HR MAX TEMP:  42;

BUFFALO        FAIR      42  22  44 SW5       30.04R
6HR MIN TEMP:  38; 6HR MAX TEMP:  50;

GILLETTE       FAIR      42  24  49 W13       30.01S
6HR MIN TEMP:  33; 6HR MAX TEMP:  44;

HULETT         CLOUDY    41  28  60 SW13      30.00F
NEWCASTLE      FAIR      32  25  74 CALM      30.05R

$$
WYZ014>020-022>026-101>103-111300-
CENTRAL WYOMING

CITY           SKY/WX    TMP DP  RH WIND       PRES   REMARKS
BIG PINEY      FAIR      18  11  74 W3        30.33F
6HR MIN TEMP:  14; 6HR MAX TEMP:  25;

PINEDALE         N/A     14   9  79 NW3       30.33F
DUBOIS         FAIR      36  14  41 NW23G29   30.20S WCI  24
LANDER         FAIR      28  15  58 SE3       30.13F
6HR MIN TEMP:  27; 6HR MAX TEMP:  41;

RIVERTON       FAIR      30  18  60 SW14      30.13F WCI  19
6HR MIN TEMP:  27; 6HR MAX TEMP:  38;

CASPER         FAIR      35  21  56 SW26G36   30.13R WCI  22
6HR MIN TEMP:  34; 6HR MAX TEMP:  38;

DOUGLAS        FAIR      34  25  69 N7          N/A  WCI  28
6HR MIN TEMP:  25; 6HR MAX TEMP:  34;


$$
WYZ021-027>030-104>119-111300-
SOUTHERN WYOMING

CITY           SKY/WX    TMP DP  RH WIND       PRES   REMARKS
EVANSTON       FAIR      26  11  52 SW10      30.38S WCI  16
6HR MIN TEMP:  23; 6HR MAX TEMP:  30;

FORT BRIDGER   SUNNY     32  16  51 W21       30.38R WCI  20
ROCK SPRINGS   FAIR      30  14  51 W10       30.34R WCI  21
6HR MIN TEMP:  28; 6HR MAX TEMP:  34;

DIXON          FAIR       9   4  80 CALM      30.38R
RAWLINS        FAIR      31  17  56 SW18G25   30.24S WCI  19
6HR MIN TEMP:  31; 6HR MAX TEMP:  34;

SARATOGA       FAIR      28  16  59 E13       30.28S WCI  18
LARAMIE        FAIR      35  15  44 SW20      30.19F WCI  24
6HR MIN TEMP:  24; 6HR MAX TEMP:  35;

CHEYENNE       FAIR      43  15  32 NW13G22   30.13R
6HR MIN TEMP:  35; 6HR MAX TEMP:  44;

TORRINGTON     FAIR      34  22  61 CALM      30.08S
6HR MIN TEMP:  27; 6HR MAX TEMP:  35;

PINE BLUFFS    FAIR      34  21  60 W10       30.15R WCI  26

$$




USA.gov is the U.S. government's official web portal to all federal, state and local government web resources and services.